STARLINK-1453, 45670

Orbit data source: Space-Track

STARLINK-1453, 45670 is a payload satellite owned by SpaceX/Seattle (US) in LEO that was launched on Thu, 04 Jun 2020 UTC via an FALCON 9 launch vehicle from the Air Force Eastern Test Range (AFETR). Payloads include a variety of satellites, spacecraft, and rockets equipped with specific instruments for various scientific and technological missions. These include communications satellites like Starlink; space stations such as the ISS; scientific satellites like the Hubble; Earth observation satellites from companies like Planet Labs, Umbra, and HawkEye 360; GPS; miniature CubeSats for education and research; and military/defense satellites.

Loading next visibility...
STARLINK-1453 details
Identifier
45670, 2020-035P
Orbit
LEO
Last TLE update5 hours ago
Origin
Flag of USSpaceX/Seattle (US)
ManufacturerSpaceX/Seattle
MissionOperational Commercial Communications
Bus & MotorSTARLINK, Unknown motor
Mass260 kg wet, ~248 kg dry
Launch date (UTC)
2020-06-04 (5 years ago)
Launch vehicle
FALCON 9
Launch site
Air Force Eastern Test Range (AFETR)
Object type
Payload
Rocket body
Debris
Shape & HBRBox + 1 Pan, 8.86 m
Radar Cross Section13.562 m², Large (>1 m²)

Expand to show TLE details & history

TLE from 5 hours ago
0 STARLINK-1453
1 45670U 20035P   24340.18905012  .00019307  00000-0  13124-2 0  9994
2 45670  53.0555 299.3967 0001464  93.2432 266.8725 15.06373384249483
Epoch: 2024-12-05T04:32Z
Definitive object data (Epoch: 2024-12-05T04:32:13.93Z)
Latitude0.00003°
Longitude156.86525°
Altitude548.228 km
Speed7.589 km/s
True Right ascension19h 57m 35s
True Declination0° 00' 00"
Sunlit
Object was in daylight at TLE epoch
Visualization TLE readout
Latitude2.63566°
Longitude157.94182°
Altitude547.853 km
Speed7.589 km/s
Apparent Right ascension19h 43m 40s
Apparent Declination-17° 41' 56"
Sunlit
Object is in daylight
Visualization observer readout
Local Sidereal Time07:17:55
Azimuth344.072° N
Elevation-67.095°
Doppler factor1
Orbital elements
Apogee altitude548.578 km
Perigee altitude546.55 km
Semi-major axis6,925.701 km
Eccentricity0.0001464
Inclination53.0555°
RAAN299.3967°
Arg. of periapsis93.2432°
True anomaly266.85575°
Mean anomaly266.8725°
Eccentric anomaly266.86412°
Mean motion3.76572 °/min
BSTAR0.0013124
Orbital period95.6 mins
Loading maneuver chart data...

STARLINK-1453 Visibility forecast

Observer location: undefined°, undefined

Span
Click to sort rows by Start time (UTC) header in descending order
Start Az.
Max El. time (UTC)
Max El. Az.
Max El.
End time (UTC)
End Az.
7 mins2024-12-05 23:48:43.450Z209.099° SW2024-12-05 23:51:43.450Z143.791° SSE38.708°2024-12-05 23:55:43.450Z58.843° ENE
5 mins2024-12-06 01:29:43.450Z291.658° WNW2024-12-06 01:31:43.450Z337.388° NNW24.878°2024-12-06 01:34:43.450Z30.151° NE
4 mins2024-12-06 04:51:43.450Z352.082° N2024-12-06 04:52:43.450Z9.225° NNE16.063°2024-12-06 04:55:43.450Z56.853° ENE
6 mins2024-12-06 06:30:43.450Z323.34° NNW2024-12-06 06:33:43.450Z59.689° ENE38.326°2024-12-06 06:36:43.450Z112.084° ESE
4 mins2024-12-06 08:10:43.450Z266.207° W2024-12-06 08:12:43.450Z228.263° WSW19.5°2024-12-06 08:14:43.450Z192.77° SSW
|